Regional Weather Roundup
Issued by NWS Newport/Morehead, NC

Current Version | Previous Version | Graphics & Text | Print | Product List | Glossary Off
Versions: 1 2 3 4 5 6 7 8 9 10 11 12 13 14 15 16 17 18 19 20 21 22 23 24 25 26 27 28 29 30 31 32 33 34 35 36 37 38 39 40 41 42 43 44 45 46 47 48 49 50

000
ASUS42 KMHX 260613
RWRMHX
WEATHER ROUNDUP FOR EASTERN NORTH CAROLINA
NATIONAL WEATHER SERVICE NEWPORT/MOREHEAD CITY NC
200 AM EDT FRI AUG 26 2016

NOTE: "FAIR" INDICATES FEW OR NO CLOUDS BELOW 12,000 FEET
WITH NO SIGNIFICANT WEATHER AND/OR OBSTRUCTIONS TO VISIBILITY

NCZ015>017-031-032-045>047-102-103-260700-
NORTH COAST

CITY           SKY/WX    TMP DP  RH WIND       PRES   REMARKS
EDENTON        FAIR      79  68  70 SW9       30.09S
ELIZABETH CITY FAIR      72  67  84 S5        30.08S
KITTY HAWK     FAIR      76  72  87 CALM      30.07F
MANTEO         FAIR      79  69  73 SW10      30.09S

$$

NCZ045>047-081-094-103-104-260700-
CENTRAL COAST

CITY           SKY/WX    TMP DP  RH WIND       PRES   REMARKS
FRISCO         FAIR      79  66  64 SE7       30.08F

$$

NCZ095-097-098-100-101-260700-
SOUTHERN COAST

CITY           SKY/WX    TMP DP  RH WIND       PRES   REMARKS
BEAUFORT       FAIR      72  68  87 CALM      30.09S
CEDAR ISLAND   NOT AVBL
JACKSONVILLE   FAIR      71  68  90 W3        30.09S
PINEY ISLAND   NOT AVBL
WILMINGTON     FAIR      72  68  87 CALM      30.09S


$$

NCZ011>013-027>030-043-044-078>080-089-090>093-098-260700-
COASTAL PLAIN

CITY           SKY/WX    TMP DP  RH WIND       PRES   REMARKS
AHOSKIE        FAIR      71  68  89 CALM      30.08S
CLINTON        FAIR      73  71  95 CALM      30.10S
ELIZABETHTOWN  FAIR      74  70  89 CALM      30.10S
GOLDSBORO      FAIR      74  71  91 S1        30.08S
GREENVILLE     FAIR      73  70  88 SW5       30.10S
HAVELOCK       FAIR      73  68  84 CALM      30.10S
KENANSVILLE    FAIR      68  68 100 CALM      30.10S
KINSTON        FAIR      72  67  86 S3        30.10S
NEW BERN       FAIR      71  68  90 CALM      30.11S
RICHLANDS      FAIR      70  68  93 CALM      30.10S
ROCKY MOUNT    FAIR      73  70  90 S5        30.08S
WASHINGTON     FAIR      73  68  83 CALM      30.09S
WHITEVILLE     FAIR      71  69  94 CALM      30.09S

$$

AMZ130-135-150-152-154-156-158-170-250-252-270-ANZ085-086-088-633-658-670-260700-
MARINE OBSERVATIONS

STATION/POSITION TIME  TEMP    WIND        PRES    WAVE   SWELL
                       AIR SEA DIR/SP/G            HT/PER HT/PER
                 (UTC) (F)     (DEG/KT/KT) (MB)    (FT/S) (FT/S)
CHESAPEAKE LIGHT NOT AVBL
64 E VA BEACH    0550   80 81  200/ 12/ 14 1018.2    3/ 8   2/ 8
DUCK             0500   78 79  170/  8/ 10 1017.9
2 E DUCK         0511      78                N/A     2/ 8
OREGON INLET     0500   77 80  140/  4/  7 1018.6
13E OREGON INLT  0600      78                N/A     2/ 8   2/ 8
HATTERAS CG      0500   80 81  140/  5/  7 1018.5
DIAMOND BUOY     0550   80 84  140/  2/  4 1018.6    3/ 9   3/ 9
CAPE LOOKOUT     0600   80     150/  8/  8 1018.6
BEAUFORT LAB     0500   79 81  150/  5/  5 1018.2
30 SE NEW RVR IN NOT AVBL
30 SE NEW RVR IN 0525      84                N/A     3/ 8
27 SE WRIGHTSVLE 0508   82 83  120/  6/ 10 1018.8
5 SE WRIGHTSVLE  0508   81 83  170/  6/  8 1019.8
225 S CAPE HAT   0550   81 84   40/ 10/ 14 1016.8    4/ 8   3/ 8
41 SE CHARLESTON 0550   83 84  100/  6/  8 1018.2    3/ 9   3/ 9

$$



USA.gov is the U.S. government's official web portal to all federal, state and local government web resources and services.